Home > Weather > Kitchener > Past weeks

Flag for Canada Weather for the Past 2 Weeks in Kitchener, Ontario, Canada

Now
-8 °F

Clear.


Feels Like: -29 °F
Forecast: -7 / 5 °F
Wind: 15 mph from Northwest

Location: Waterloo Well

Current Time: Feb 13, 2016 at 6:36:38 AM

Latest Report: Feb 13, 2016 at 6:00 AM


Visibility: 9 mi

Pressure: 30.26 "Hg

Humidity: 64%

Dew point: -17 °F

Location of KitchenerLocation

Historic Weather in Kitchener — Graph

°F

Kitchener Temperature Yesterday

Maximum temperature yesterday: 19 °F (at 11:51 AM)
Minimum temperature yesterday: 9 °F (at 12:00 AM)
Average temperature yesterday: 14 °F

High & Low Weather Summary for the Past Weeks

 TemperatureHumidityPressure
High57 °F (Feb 3, 1:52 PM)100% (Jan 31, 2:00 AM)30.34 "Hg (Jan 31, 2:00 AM)
Low-6 °F (Feb 13, 5:00 AM)44% (Feb 3, 3:00 PM)29.46 "Hg (Jan 31, 11:00 PM)
Average28 °F81%29.89 "Hg
* Reported Jan 29 5:00 AM — Feb 13 5:00 AM, Kitchener, Weather by CustomWeather, © 2016

Note: Actual official high and low records may vary slightly from our data, if they occured in-between our weather recording intervals... More about our weather records

Advertising

Kitchener Weather History for the Previous 24 Hours

 ConditionsComfort  
Time TempWeatherWind HumidityBarometerVisibility
5:00 AM
Sat, Feb 13
-6 °FClear.10 mph70%30.23 "Hg9 mi
4:00 AM-4 °FClear.17 mph71%30.19 "Hg9 mi
3:00 AM-2 °FClear.17 mph71%30.16 "Hg9 mi
2:00 AM1 °FClear.10 mph60%30.12 "Hg9 mi
1:00 AM3 °FClear.16 mph66%30.09 "Hg9 mi
12:02 AM7 °FLight snow. Mostly cloudy.21 mph78%30.05 "Hg6 mi
11:00 PM
Fri, Feb 12
10 °FLight snow. Overcast.13 mph72%30.01 "Hg9 mi
10:00 PM10 °FLight snow. Passing clouds.15 mph72%30.00 "Hg9 mi
9:00 PM10 °FPassing clouds.17 mph67%29.96 "Hg9 mi
8:00 PM14 °FMostly cloudy.14 mph67%29.93 "Hg9 mi
7:00 PM16 °FLight snow. Ice fog.21 mph86%29.90 "Hg1 mi
6:00 PM16 °FLight snow. Passing clouds.15 mph79%29.89 "Hg9 mi
5:00 PM18 °FSunny.20 mph62%29.88 "Hg9 mi
4:00 PM19 °FPassing clouds.22 mph68%29.87 "Hg9 mi
3:00 PM18 °FSnow. Ice fog.17 mph79%29.88 "Hg1 mi
2:00 PM19 °FLight snow. Ice fog.20 mph86%29.89 "Hg1 mi
1:00 PM19 °FLight snow. Mostly cloudy.18 mph79%29.91 "Hg4 mi
12:53 PM19 °FLight snow. Overcast.18 mph79%29.91 "Hg3 mi
12:00 PM19 °FOvercast.16 mph73%29.94 "Hg7 mi
11:51 AM19 °FMostly cloudy.17 mph73%29.94 "Hg7 mi
11:02 AM18 °FLight snow. Mostly cloudy.17 mph73%29.96 "Hg6 mi
10:00 AM16 °FLight snow. Mostly cloudy.16 mph73%29.99 "Hg9 mi
9:54 AM14 °FLight snow. Mostly cloudy.20 mph79%29.99 "Hg9 mi
9:00 AM12 °FOvercast.18 mph79%30.01 "Hg9 mi
8:00 AM10 °FOvercast.15 mph79%30.04 "Hg9 mi
7:00 AM10 °FOvercast.13 mph79%30.06 "Hg9 mi
6:04 AM9 °FPassing clouds.8 mph85%30.08 "Hg9 mi
Weather by CustomWeather, © 2016

See weather overviewHow to use our weather pages